GW5980 Weather Reports


time (UTC)temp
C
wind
direction
speed
KPH
gust
KPH
rain 1hr
cm
rain 24hr
cm
rain mn
cm
humidity
%
barometer
mb
20260503050619 16 34 0.0 6.4 0.00 0.00 0.00 47 1184.3
20260503050116 16 301 8.0 9.7 0.00 0.00 0.00 46 1184.5
20260503045614 16 303 4.8 8.0 0.00 0.00 0.00 45 1184.6
20260503045110 16 324 8.0 9.7 0.00 0.00 0.00 45 1184.7
20260503044607 16 337 6.4 9.7 0.00 0.00 0.00 45 1184.9
20260503044105 16 20 3.2 12.9 0.00 0.00 0.00 44 1184.7
20260503043600 16 316 4.8 17.7 0.05 0.00 0.00 47 1184.9
20260503043058 17 19 6.4 9.7 0.05 0.00 0.00 43 1185.2
20260503042554 17 36 14.5 19.3 0.00 0.00 0.00 36 1185.0
20260503042050 17 14 3.2 8.0 0.00 0.00 0.00 37 1185.0
20260503041547 17 33 8.0 11.3 0.00 0.00 0.00 38 1184.9
20260503041045 17 50 6.4 9.7 0.00 0.00 0.00 40 1184.6
20260503040542 17 9 8.0 14.5 0.00 0.00 0.00 40 1184.6
20260503040039 17 319 6.4 8.0 0.00 0.00 0.00 39 1184.5
20260503035536 17 332 3.2 9.7 0.00 0.00 0.00 38 1184.6
20260503035034 17 15 1.6 3.2 0.00 0.00 0.00 38 1184.4
20260503034531 17 332 1.6 6.4 0.00 0.00 0.00 38 1184.3
20260503034028 17 344 3.2 6.4 0.00 0.00 0.00 36 1184.0
20260503033525 18 9 1.6 6.4 0.00 0.00 0.00 36 1183.9
20260503033023 18 345 6.4 9.7 0.00 0.00 0.00 35 1184.0
20260503032521 18 328 8.0 9.7 0.00 0.00 0.00 38 1184.1
20260503032019 18 305 4.8 6.4 0.00 0.00 0.00 40 1183.9
20260503031517 18 306 9.7 9.7 0.00 0.00 0.00 41 1184.0
20260503031013 18 344 0.0 4.8 0.00 0.00 0.00 35 1184.3
20260503030509 18 17 3.2 6.4 0.00 0.00 0.00 35 1184.1
20260503030007 18 277 6.4 11.3 0.00 0.00 0.00 34 1183.8
20260503025503 18 176 0.0 8.0 0.00 0.00 0.00 34 1184.0
20260503025001 18 310 3.2 11.3 0.00 0.00 0.00 33 1183.9
20260503024457 18 146 4.8 6.4 0.00 0.00 0.00 34 1183.7
20260503023955 18 139 1.6 3.2 0.00 0.00 0.00 34 1183.7
20260503023451 18 15 1.6 4.8 0.00 0.00 0.00 34 1183.7
20260503022948 18 315 3.2 4.8 0.00 0.00 0.00 33 1183.5
20260503022443 19 330 4.8 4.8 0.00 0.00 0.00 32 1183.2
20260503021939 19 0 1.6 4.8 0.00 0.00 0.00 31 1183.2
20260503021436 19 349 3.2 6.4 0.00 0.00 0.00 31 1183.1
20260503020933 19 44 3.2 6.4 0.00 0.00 0.00 31 1183.1
20260503020431 20 17 4.8 6.4 0.00 0.00 0.00 30 1183.2
20260503015927 20 66 3.2 8.0 0.00 0.00 0.00 29 1183.2
20260503015424 20 40 3.2 6.4 0.00 0.00 0.00 30 1183.2
20260503014920 20 11 3.2 6.4 0.00 0.00 0.00 30 1183.2
20260503014417 20 13 4.8 6.4 0.00 0.00 0.00 30 1183.1
20260503013915 20 38 3.2 6.4 0.00 0.00 0.00 30 1183.1
20260503013412 20 335 1.6 4.8 0.00 0.00 0.00 30 1183.5
20260503012909 20 10 3.2 3.2 0.00 0.00 0.00 30 1183.2
20260503012407 20 319 3.2 4.8 0.00 0.00 0.00 30 1183.2
20260503011903 19 325 3.2 4.8 0.00 0.00 0.00 32 1183.2
20260503011400 19 61 6.4 6.4 0.00 0.00 0.00 32 1183.6
20260503010857 19 271 6.4 6.4 0.00 0.00 0.00 32 1183.8
20260503010354 19 284 4.8 4.8 0.00 0.00 0.00 32 1183.9
20260503005850 19 295 8.0 8.0 0.00 0.00 0.00 33 1183.8
20260503005348 18 259 6.4 16.1 0.00 0.00 0.00 34 1183.7
20260503004844 18 217 6.4 8.0 0.00 0.00 0.00 35 1184.1
20260503004342 18 240 4.8 11.3 0.00 0.00 0.00 35 1184.3
20260503003839 18 239 17.7 20.9 0.00 0.00 0.00 35 1184.0
20260503003336 18 272 12.9 24.1 0.00 0.00 0.00 34 1184.0
20260503002833 19 253 14.5 24.1 0.00 0.00 0.00 35 1183.8
20260503002330 20 263 14.5 22.5 0.00 0.00 0.00 32 1183.8
20260503001826 20 263 6.4 12.9 0.00 0.00 0.00 32 1183.8
20260503001322 20 280 8.0 9.7 0.00 0.00 0.00 30 1183.9
20260503000820 20 342 4.8 6.4 0.00 0.00 0.00 30 1183.6
20260503000319 19 324 9.7 11.3 0.00 0.00 0.00 32 1183.6
20260502235814 20 277 9.7 14.5 0.00 0.00 0.00 32 1183.5
20260502235312 19 326 8.0 16.1 0.00 0.00 0.00 32 1183.5
20260502234808 20 301 8.0 24.1 0.00 0.00 0.00 35 1183.5
20260502234305 20 319 6.4 17.7 0.00 0.00 0.00 34 1183.7
20260502233801 19 316 6.4 19.3 0.00 0.00 0.00 32 1183.8
20260502233258 19 136 1.6 9.7 0.00 0.00 0.00 30 1184.1
20260502232754 20 157 8.0 19.3 0.00 0.00 0.00 31 1184.6
20260502232251 20 114 14.5 24.1 0.00 0.00 0.00 31 1184.1
20260502231748 20 236 6.4 14.5 0.00 0.00 0.00 29 1184.1
20260502231246 20 187 9.7 27.4 0.00 0.00 0.00 28 1183.8
20260502230744 20 276 11.3 17.7 0.00 0.00 0.00 28 1183.8
20260502230242 20 324 3.2 9.7 0.00 0.00 0.00 28 1183.7
20260502225738 20 342 3.2 8.0 0.00 0.00 0.00 29 1183.6
20260502225235 20 341 4.8 9.7 0.00 0.00 0.00 30 1183.6
20260502224731 20 26 4.8 19.3 0.00 0.00 0.00 33 1183.7
20260502224228 20 0 11.3 27.4 0.00 0.00 0.00 35 1183.5
20260502223726 19 5 6.4 22.5 0.00 0.00 0.00 34 1183.9
20260502223224 19 75 4.8 30.6 0.00 0.00 0.00 34 1184.4
20260502222721 20 113 29.0 38.6 0.00 0.00 0.00 34 1184.6
20260502222218 22 159 41.8 53.1 0.00 0.00 0.00 27 1184.4
20260502221714 23 148 22.5 40.2 0.00 0.00 0.00 22 1183.6
20260502221210 23 142 4.8 6.4 0.00 0.00 0.00 19 1183.7
20260502220706 23 294 8.0 14.5 0.00 0.00 0.00 19 1183.3
20260502220203 23 256 8.0 9.7 0.00 0.00 0.00 19 1183.5
20260502215700 23 359 1.6 4.8 0.00 0.00 0.00 19 1183.5
20260502215157 24 215 4.8 14.5 0.00 0.00 0.00 19 1183.5
20260502214654 24 95 4.8 17.7 0.00 0.00 0.00 19 1183.9
20260502214151 24 72 11.3 14.5 0.00 0.00 0.00 19 1183.8
20260502213648 24 133 8.0 22.5 0.00 0.00 0.00 19 1183.7
20260502213146 25 151 14.5 24.1 0.00 0.00 0.00 19 1183.9
20260502212644 24 121 3.2 8.0 0.00 0.00 0.00 19 1183.7
20260502212142 24 140 6.4 8.0 0.00 0.00 0.00 19 1183.9
20260502211637 24 182 9.7 9.7 0.00 0.00 0.00 19 1183.9
20260502211135 24 94 3.2 6.4 0.00 0.00 0.00 19 1184.0
20260502210632 24 128 3.2 3.2 0.00 0.00 0.00 19 1184.4
20260502210129 24 221 3.2 4.8 0.00 0.00 0.00 19 1184.1
20260502205626 24 266 3.2 9.7 0.00 0.00 0.00 19 1184.3
20260502205123 24 318 0.0 6.4 0.00 0.00 0.00 19 1184.3
20260502204619 24 104 6.4 17.7 0.00 0.00 0.00 19 1184.1
20260502204117 23 98 4.8 9.7 0.00 0.00 0.00 19 1184.4
20260502203614 23 30 12.9 14.5 0.00 0.00 0.00 19 1184.3
20260502203112 23 46 9.7 16.1 0.00 0.00 0.00 19 1184.3
20260502202607 24 72 9.7 19.3 0.00 0.00 0.00 19 1184.1
20260502202105 23 116 9.7 14.5 0.00 0.00 0.00 19 1184.4
20260502201601 24 61 9.7 19.3 0.00 0.00 0.00 18 1184.4
20260502201058 23 45 12.9 16.1 0.00 0.00 0.00 18 1184.7
20260502200553 24 88 6.4 12.9 0.00 0.00 0.00 18 1184.8
20260502200052 24 85 12.9 14.5 0.00 0.00 0.00 18 1184.7
20260502195549 23 70 12.9 16.1 0.00 0.00 0.00 18 1184.8
20260502195045 23 52 14.5 20.9 0.00 0.00 0.00 18 1184.8
20260502194542 23 66 11.3 14.5 0.00 0.00 0.00 17 1184.9
20260502194038 23 7 3.2 16.1 0.00 0.00 0.00 18 1185.0
20260502193536 23 82 14.5 20.9 0.00 0.00 0.00 17 1184.9
20260502193032 23 174 3.2 12.9 0.00 0.00 0.00 17 1184.9
20260502192527 23 67 3.2 14.5 0.00 0.00 0.00 17 1185.0
20260502192026 23 49 11.3 11.3 0.00 0.00 0.00 18 1185.0
20260502191522 22 28 12.9 20.9 0.00 0.00 0.00 18 1185.2
20260502191020 23 67 11.3 20.9 0.00 0.00 0.00 17 1185.0
20260502190517 23 46 11.3 20.9 0.00 0.00 0.00 17 1185.4
20260502190014 22 53 9.7 19.3 0.00 0.00 0.00 17 1185.0
20260502185509 23 34 12.9 16.1 0.00 0.00 0.00 17 1185.2
20260502185006 22 354 9.7 17.7 0.00 0.00 0.00 18 1185.4
20260502184501 22 36 6.4 19.3 0.00 0.00 0.00 18 1185.4
20260502183958 23 22 9.7 16.1 0.00 0.00 0.00 17 1185.4
20260502183454 22 118 4.8 9.7 0.00 0.00 0.00 17 1185.4
20260502182949 22 155 0.0 6.4 0.00 0.00 0.00 18 1185.7
20260502182445 22 31 8.0 11.3 0.00 0.00 0.00 17 1185.6
20260502181941 22 52 8.0 12.9 0.00 0.00 0.00 17 1185.6
20260502181440 22 180 6.4 11.3 0.00 0.00 0.00 18 1185.7
20260502180938 22 120 8.0 8.0 0.00 0.00 0.00 18 1185.7
20260502180435 22 70 0.0 8.0 0.00 0.00 0.00 19 1185.7
20260502170354 18 288 0.0 4.8 0.00 0.00 0.00 21 1186.1
20260502164341 17 186 4.8 6.4 0.00 0.00 0.00 22 1186.3
20260502163837 16 148 1.6 4.8 0.00 0.00 0.00 22 1186.3
20260502163333 16 252 0.0 1.6 0.00 0.00 0.00 23 1186.2
20260502162831 16 42 0.0 4.8 0.00 0.00 0.00 23 1186.1
20260502162328 16 97 3.2 6.4 0.00 0.00 0.00 24 1186.2
20260502161825 16 52 0.0 3.2 0.00 0.00 0.00 23 1186.3
20260502161321 15 216 3.2 3.2 0.00 0.00 0.00 24 1186.3
20260502160819 15 170 0.0 4.8 0.00 0.00 0.00 25 1186.2
20260502160318 15 239 3.2 4.8 0.00 0.00 0.00 26 1186.0
20260502152247 13 191 1.6 4.8 0.00 0.00 0.00 29 1186.0
20260502151744 13 164 4.8 6.4 0.00 0.00 0.00 28 1186.1
20260502151241 12 129 1.6 3.2 0.00 0.00 0.00 28 1186.1
20260502150739 12 121 4.8 6.4 0.00 0.00 0.00 28 1186.1
20260502150235 12 205 3.2 3.2 0.00 0.00 0.00 28 1185.8
20260502130624 6 76 1.6 3.2 0.00 0.00 0.00 29 1185.4
20260502130122 6 180 0.0 1.6 0.00 0.00 0.00 28 1185.2
20260502123607 7 102 0.0 3.2 0.00 0.00 0.00 27 1185.0
20260502123103 7 56 3.2 3.2 0.00 0.00 0.00 28 1185.0
20260502122600 7 54 3.2 3.2 0.00 0.00 0.00 27 1185.2
20260502122057 7 72 1.6 3.2 0.00 0.00 0.00 28 1185.0
20260502121555 7 52 0.0 1.6 0.00 0.00 0.00 28 1185.0
20260502121052 7 29 0.0 1.6 0.00 0.00 0.00 27 1185.0
20260502120548 7 44 3.2 3.2 0.00 0.00 0.00 27 1185.3
20260502115543 7 46 3.2 3.2 0.00 0.00 0.00 27 1185.4
20260502115039 7 50 0.0 1.6 0.00 0.00 0.00 26 1185.0
20260502114535 7 30 0.0 3.2 0.00 0.00 0.00 26 1185.2
20260502114032 7 13 0.0 1.6 0.00 0.00 0.00 26 1185.2
20260502113530 7 41 0.0 1.6 0.00 0.00 0.00 26 1185.2
20260502113029 7 44 0.0 1.6 0.00 0.00 0.00 27 1185.3
20260502112526 7 29 3.2 4.8 0.00 0.00 0.00 27 1185.5
20260502112023 7 60 0.0 3.2 0.00 0.00 0.00 28 1185.4
20260502111521 7 40 0.0 3.2 0.00 0.00 0.00 27 1185.4
20260502111018 7 130 1.6 3.2 0.00 0.00 0.00 26 1185.3
20260502110515 7 118 3.2 3.2 0.00 0.00 0.00 25 1185.4
20260502110013 8 16 0.0 0.0 0.00 0.00 0.00 26 1185.3
20260502105510 7 29 1.6 1.6 0.00 0.00 0.00 27 1184.9
20260502105008 7 46 0.0 1.6 0.00 0.00 0.00 26 1185.2
20260502104504 7 45 0.0 4.8 0.00 0.00 0.00 25 1185.2
20260502104002 7 94 3.2 4.8 0.00 0.00 0.00 26 1185.2
20260502103459 7 56 3.2 4.8 0.00 0.00 0.00 26 1185.2
20260502102956 7 125 0.0 1.6 0.00 0.00 0.00 24 1185.2
20260502102453 7 139 0.0 1.6 0.00 0.00 0.00 24 1185.3
20260502101950 7 132 3.2 3.2 0.00 0.00 0.00 24 1185.0
20260502101448 8 111 1.6 3.2 0.00 0.00 0.00 24 1185.0
20260502100946 7 326 1.6 3.2 0.00 0.00 0.00 25 1185.0
20260502100445 7 289 0.0 0.0 0.00 0.00 0.00 26 1185.2
20260502091419 8 191 0.0 1.6 0.00 0.00 0.00 26 1185.2
20260502090916 9 151 1.6 3.2 0.00 0.00 0.00 24 1185.4
20260502090414 9 36 1.6 3.2 0.00 0.00 0.00 24 1185.2
20260502071308 11 145 1.6 3.2 0.00 0.00 0.00 21 1186.3
20260502070806 12 80 1.6 3.2 0.00 0.00 0.00 21 1186.1
20260502070304 12 17 3.2 4.8 0.00 0.00 0.00 21 1186.2
20260502065802 12 27 4.8 6.4 0.00 0.00 0.00 21 1186.2
20260502065300 12 53 0.0 3.2 0.00 0.00 0.00 21 1186.1
20260502064758 12 30 3.2 3.2 0.00 0.00 0.00 21 1186.4
20260502064255 12 32 3.2 4.8 0.00 0.00 0.00 21 1186.1
20260502063753 12 53 3.2 3.2 0.00 0.00 0.00 21 1186.1
20260502063251 12 48 0.0 1.6 0.00 0.00 0.00 20 1186.1
20260502062747 12 41 1.6 3.2 0.00 0.00 0.00 20 1186.3
20260502062245 12 36 0.0 3.2 0.00 0.00 0.00 19 1186.1
20260502061743 13 298 3.2 3.2 0.00 0.00 0.00 20 1186.2
20260502061241 13 255 1.6 1.6 0.00 0.00 0.00 20 1186.2
20260502060736 13 123 1.6 3.2 0.00 0.00 0.00 19 1186.1
20260502060232 13 152 0.0 1.6 0.00 0.00 0.00 19 1186.2
20260502055730 14 336 0.0 3.2 0.00 0.00 0.00 19 1186.1
20260502055228 14 0 0.0 3.2 0.00 0.00 0.00 18 1186.0
20260502054727 15 322 1.6 1.6 0.00 0.00 0.00 18 1186.2
20260502054224 15 349 1.6 1.6 0.00 0.00 0.00 19 1186.2
20260502053721 15 54 0.0 3.2 0.00 0.00 0.00 19 1186.2
20260502053218 15 293 0.0 3.2 0.00 0.00 0.00 18 1186.4
20260502052716 15 1 4.8 6.4 0.00 0.00 0.00 18 1186.3
20260502052214 15 5 3.2 4.8 0.00 0.00 0.00 18 1186.2
20260502051712 15 139 0.0 3.2 0.00 0.00 0.00 17 1186.0
20260502051210 16 11 0.0 3.2 0.00 0.00 0.00 17 1186.2